sat.trackr.live / text

‹ back to catalog

STARLINK-6287

NORAD 56404 · 2023-061AG

PAYLOAD ACTIVE UNKNOWN

§ Identity

Operator
Country
US
Launch date
2023-05-04
Launch site
AFETR
Launch vehicle
Mass (kg)
RCS (m²)

Purposes: comms

External: N2YO · Heavens-Above · Gunter

§ Orbital elements

Epoch: 2026-05-25T04:49:49.060992Z

Period
94.27 min
Inclination
43.0020°
Eccentricity
0.0001334
Mean motion
15.27573551 rev/d
Perigee alt
482.2 km
Apogee alt
484.0 km
Semi-major
6,861.2 km
B*
6.5680e-6
RAAN
115.1410°
Arg perigee
267.9572°
Mean anomaly
92.1127°
Rev number
16,857

§ Raw data

STARLINK-62871 56404U 23061AG  26145.20126228 -.00000081  00000+0  65680-5 0  99912 56404  43.0020 115.1410 0001334 267.9572  92.1127 15.27573551168572

JSON: /api/v1/satellites/56404 · /tle

For live sub-satellite position, see the globe view (requires WebGL).

§ Visibility from observer

Set your observer location to see the next 7 days of passes ≥ 10°. The values pass through the URL so the page stays shareable.

No JS? Fill the form by hand. The geolocation button needs JavaScript.